Location: Casco Volunteer Fire Department
(44.5576°N, 87.6146°W)
Time: 05:29:10
(UTC+00:00)

NOSS 3-1 (C) - Pass Details

Date: 22 January 2026
Orbit: 618 x 1583 km, 63.4° (Epoch: 10 January)

Event Time Altitude Azimuth Distance (km) Brightness Sun altitude
Rises 23:06:20 0° 324° (NW) 3,667 6.7 -4.1°
Reaches altitude 10° 23:08:50 10° 331° (NNW) 2,850 6.0 -4.5°
Maximum altitude 23:15:26 45° 43° (NE) 1,619 4.3 -5.6°
Drops below altitude 10° 23:23:33 10° 114° (ESE) 3,511 6.0 -7.0°
Sets 23:26:56 0° 120° (ESE) 4,592 6.6 -7.5°
